St. Johns, AZ

10:04 PM MST on December 15, 2019 (GMT -0700)
Saint Johns Industrial

Weather History for KSJN - October, 2019

Change the Weather History Date:

Sunday, October 20, 2019

  Actual Average (KLSB) Record (KLSB)
Temperature  
Mean Temperature 44 °F -  
Max Temperature 60 °F 74 °F 77 °F (2013)
Min Temperature 28 °F 43 °F 32 °F (2013)
Degree Days  
Heating Degree Days 21    
Moisture  
Dew Point 8 °F    
Average Humidity 17    
Maximum Humidity 35    
Minimum Humidity 4    
Precipitation  
Precipitation 0.00 in - - ()
Sea Level Pressure  
Sea Level Pressure 29.85 in    
Wind  
Wind Speed 9 mph (WNW)    
Max Wind Speed 23 mph    
Max Gust Speed 29 mph    
Visibility 10 miles    
Events      
Averages and records for this station are not official NWS values.
T = Trace of Precipitation, MM = Missing Value Source: NWS Daily Summary

Daily Weather History Graph

Daily Weather History Graph

Search for Another Location

Airport or City:

Astronomy

Oct. 20, 2019 Rise Set
Actual Time 6:27 AM MST 5:37 PM MST
Civil Twilight 6:01 AM MST 6:02 PM MST
Nautical Twilight 5:32 AM MST 6:31 PM MST
Astronomical Twilight 5:03 AM MST 7:00 PM MST
Moon 10:59 PM MST (10/20) 12:47 PM MST (10/20)
Length of Visible Light 12h 00m
Length of Day
11h 09m
Waning Gibbous, 58% of the Moon is Illuminated
Oct 20
Waning Gibbous
Oct 21
Last Quarter
Oct 27
New
Nov 4
First Quarter
Nov 12
Full

Hourly Weather History & Observations

Time (MST) Temp. Windchill Dew Point Humidity Pressure Visibility Wind Dir Wind Speed Gust Speed Precip Events Conditions
12:54 AM 54.0 °F - 12.0 °F 19% 29.72 in 10.0 mi NW 8.1 mph - N/A   Clear
1:54 AM 54.0 °F - 6.1 °F 15% 29.69 in 10.0 mi NNW 8.1 mph - N/A   Clear
2:54 AM 52.0 °F - 14.0 °F 22% 29.70 in 10.0 mi NNW 6.9 mph - N/A   Clear
3:54 AM 46.9 °F - 17.1 °F 30% 29.73 in 10.0 mi North 6.9 mph - N/A   Clear
4:54 AM 48.0 °F - 10.9 °F 22% 29.75 in 10.0 mi NNW 5.8 mph - N/A   Clear
5:54 AM 46.0 °F 41.9 °F 10.9 °F 24% 29.77 in 10.0 mi SW 8.1 mph - N/A   Clear
6:54 AM 46.0 °F 44.8 °F 10.9 °F 24% 29.80 in 10.0 mi ENE 3.5 mph - N/A   Clear
7:54 AM 55.9 °F - 10.9 °F 17% 29.80 in 10.0 mi West 18.4 mph 24.2 mph N/A   Clear
8:54 AM 57.9 °F - 10.9 °F 16% 29.81 in 10.0 mi WNW 19.6 mph 28.8 mph N/A   Clear
9:54 AM 59.0 °F - 9.0 °F 14% 29.84 in 10.0 mi WNW 20.7 mph 27.6 mph N/A   Clear
10:54 AM 61.0 °F - 9.0 °F 13% 29.85 in 10.0 mi West 16.1 mph 23.0 mph N/A   Clear
11:54 AM 61.0 °F - 14.0 °F 16% 29.83 in 10.0 mi WNW 17.3 mph 26.5 mph N/A   Clear
12:54 PM 63.0 °F - 15.1 °F 16% 29.81 in 10.0 mi West 17.3 mph 28.8 mph N/A   Clear
1:54 PM 64.0 °F - 12.9 °F 14% 29.81 in 10.0 mi WNW 23.0 mph 28.8 mph N/A   Clear
2:54 PM 64.0 °F - 12.0 °F 13% 29.81 in 10.0 mi West 21.9 mph 28.8 mph N/A   Clear
3:54 PM 63.0 °F - 6.1 °F 11% 29.84 in 10.0 mi WNW 19.6 mph 27.6 mph N/A   Clear
4:54 PM 60.1 °F - 1.9 °F 10% 29.83 in 10.0 mi NNW 17.3 mph 24.2 mph N/A   Clear
5:54 PM 54.0 °F - -0.9 °F 11% 29.89 in 10.0 mi Calm Calm - N/A   Clear
6:54 PM 48.0 °F - -0.9 °F 13% 29.94 in 10.0 mi NNW 5.8 mph - N/A   Clear
7:54 PM 46.0 °F - -0.0 °F 15% 29.93 in 10.0 mi Calm Calm - N/A   Clear
8:54 PM 41.0 °F 38.0 °F 1.9 °F 20% 29.96 in 10.0 mi South 4.6 mph - N/A   Clear
9:54 PM 39.9 °F - 1.0 °F 20% 29.99 in 10.0 mi Calm Calm - N/A   Clear
10:54 PM 34.0 °F 29.8 °F 1.9 °F 26% 30.01 in 10.0 mi West 4.6 mph - N/A   Clear
11:54 PM 37.0 °F - 1.9 °F 23% 30.00 in 10.0 mi Calm Calm - N/A   Clear